Tracking 22287 objects as of 27-Jan-2021
HD Live streaming from Space Station
objects crossing your sky now

LANDSAT 4

Track LANDSAT 4 now!
10-day predictions
LANDSAT 4 is classified as:


NORAD ID: 13367
Int'l Code: 1982-072A
Perigee: 511.3 km
Apogee: 529.9 km
Inclination: 98.2 °
Period: 94.9 minutes
Semi major axis: 6891 km
RCS: 7.754 m2 (large)
Launch date: July 16, 1982
Source: United States (US)
Launch site: AIR FORCE WESTERN TEST RANGE (AFWTR)
aabbcc
Your satellite tracking list
Your tracking list is empty




NASA's NSSDC Master Catalog

Two Line Element Set (TLE):
1 13367U 82072A   21027.38905852  .00001072  00000-0  57390-4 0  9999
2 13367  98.1885 321.8841 0013495  29.2271  83.0919 15.17463817 85133
Source of the keplerian elements: AFSPC